Hourly Data Report for January 02, 2022

ST. JOHN'S INTL A
NEWFOUNDLAND
Current Station Operator: NAVCAN

47°37'07.000" N
52°45'09.000" W
140.50 m
8403505
71801
YYT

Download Data

Hourly Data (January 2022)
Hourly Data Report for January 2, 2022
TIME
LST
Temp Definition
°C
Dew Point Definition
°C
Rel Hum Definition
%
Precip. Amount Definition
mm

Wind Dir Definition
10's deg

Wind Spd Definition
km/h
Visibility Definition
km
Stn Press Definition
kPa
Hmdx Definition


Wind Chill Definition


Weather Definition


00:30 -2.9 -3.3 97   22 17 24.1 100.35   -8 LegendNANA
01:30 -2.0 -2.4 97   21 24 24.1 100.33   -8 LegendNANA
02:30 -1.7 -2.5 95   20 20 24.1 100.35   -7 Mainly Clear
03:30 -1.2 -1.8 96   20 26 24.1 100.32   -8 LegendNANA
04:30 -0.6 -1.1 96   21 21 24.1 100.26   -6 LegendNANA
05:30 -0.1 -0.7 96   19 23 24.1 100.14   -6 Cloudy
06:30 0.5 0.1 97   20 30 4.8 100.13     Drizzle, Fog
07:30 0.8 0.5 97   20 31 19.3 100.05     Drizzle
08:30 1.1 0.1 93   19 44 24.1 99.97     Cloudy
09:30 1.6 0.2 90   19 36 24.1 99.91     LegendNANA
10:30 2.0 0.1 87   19 36 24.1 99.84     LegendNANA
11:30 1.4 0.2 92   19 45 24.1 99.71     Cloudy
12:30 1.5 1.0 97   18 44 3.2 99.57     Drizzle, Fog
13:30 1.5 1.2 98   18 45 3.2 99.45     Drizzle, Fog
14:30 1.6 1.3 98   19 40 6.4 99.34     Fog
15:30 1.5 1.0 96   18 34 19.3 99.17     Rain
16:30 1.4 0.9 97   17 42 19.3 98.96     Rain
17:30 1.7 1.3 97   18 46 8.1 98.71     Rain, Fog
18:30 2.1 1.7 97   17 49 8.1 98.46     Rain, Fog
19:30 2.7 2.4 98   18 55 4.8 98.22     Rain, Fog
20:30 3.1 2.8 97   18 48 6.4 97.98     Drizzle, Fog
21:30 4.0 3.6 97   19 67 6.4 97.70     Drizzle, Fog
22:30 4.3 3.8 97   19 63 4.8 97.50     Drizzle, Fog
23:30 4.7 4.2 97   20 60 6.4 97.32     Drizzle, Fog

Notes on Data Quality.

Legend

  • E = Estimated
  • M = Missing
  • NA = Not Available*
  • [empty] = Indicates an unobserved value
Date modified: